Hourly Weather Aliso Viejo

Today, 6 March, Saturday

Time Temperature Precipitation Wind Pressure Humidity
00:00 +13°C° 0 mm 2 mps 748 mmHg 75%
01:00 +13°C° 0 mm 2 mps 748 mmHg 79%
02:00 +12°C° 0 mm 2 mps 748 mmHg 81%
03:00 +12°C° 0 mm 1 mps 748 mmHg 82%
04:00 +11°C° 0 mm 1 mps 748 mmHg 83%
05:00 +12°C° 0 mm 1 mps 748 mmHg 81%
06:00 +12°C° 0 mm 2 mps 748 mmHg 78%
07:00 +13°C° 0 mm 2 mps 748 mmHg 75%
08:00 +14°C° 0 mm 2 mps 748 mmHg 68%
09:00 +16°C° 0 mm 2 mps 748 mmHg 61%
10:00 +18°C° 0 mm 3 mps 748 mmHg 53%
11:00 +19°C° 0 mm 3 mps 748 mmHg 49%
12:00 +19°C° 0 mm 3 mps 748 mmHg 45%
13:00 +20°C° 0 mm 3 mps 747 mmHg 41%
14:00 +20°C° 0 mm 3 mps 747 mmHg 43%
15:00 +19°C° 0 mm 3 mps 747 mmHg 45%
16:00 +19°C° 0 mm 3 mps 746 mmHg 47%
17:00 +17°C° 0 mm 3 mps 746 mmHg 56%
18:00 +14°C° 0 mm 3 mps 747 mmHg 65%
19:00 +13°C° 0 mm 3 mps 747 mmHg 74%
20:00 +13°C° 0 mm 2 mps 747 mmHg 78%
21:00 +13°C° 0 mm 2 mps 748 mmHg 81%
22:00 +12°C° 0 mm 1 mps 748 mmHg 84%
23:00 +12°C° 0 mm 1 mps 748 mmHg 84%

Tomorrow, 7 March, Sunday

Time Temperature Precipitation Wind Pressure Humidity
00:00 +12°C° 0 mm 2 mps 748 mmHg 84%
01:00 +12°C° 0 mm 2 mps 748 mmHg 83%
02:00 +12°C° 0 mm 2 mps 748 mmHg 83%
03:00 +10°C° 0 mm 2 mps 747 mmHg 83%
04:00 +10°C° 0 mm 2 mps 747 mmHg 83%
05:00 +12°C° 0 mm 2 mps 747 mmHg 84%
06:00 +12°C° 0 mm 2 mps 748 mmHg 84%
07:00 +12°C° 0 mm 2 mps 748 mmHg 84%
08:00 +13°C° 0 mm 3 mps 748 mmHg 77%
09:00 +14°C° 0 mm 3 mps 748 mmHg 70%
10:00 +16°C° 0 mm 3 mps 748 mmHg 62%
11:00 +17°C° 0 mm 3 mps 748 mmHg 58%
12:00 +18°C° 0 mm 4 mps 748 mmHg 54%
13:00 +19°C° 0 mm 4 mps 748 mmHg 49%
14:00 +18°C° 0 mm 4 mps 747 mmHg 54%
15:00 +17°C° 0 mm 4 mps 747 mmHg 58%
16:00 +17°C° 0 mm 4 mps 747 mmHg 62%
17:00 +15°C° 0 mm 4 mps 747 mmHg 68%
18:00 +14°C° 0 mm 3 mps 748 mmHg 74%
19:00 +13°C° 0 mm 3 mps 748 mmHg 80%
20:00 +12°C° 0 mm 3 mps 748 mmHg 81%
21:00 +12°C° 0 mm 3 mps 749 mmHg 81%
22:00 +12°C° 0 mm 3 mps 749 mmHg 82%
23:00 +12°C° 0 mm 3 mps 749 mmHg 81%

Day after tomorrow, 8 March, Monday

Time Temperature Precipitation Wind Pressure Humidity
00:00 +13°C° 0 mm 2 mps 749 mmHg 80%
01:00 +13°C° 0 mm 2 mps 749 mmHg 79%
02:00 +13°C° 0 mm 2 mps 750 mmHg 79%
03:00 +13°C° 0 mm 2 mps 750 mmHg 79%
04:00 +13°C° 0 mm 2 mps 750 mmHg 79%
05:00 +13°C° 0 mm 2 mps 750 mmHg 77%
06:00 +13°C° 0 mm 2 mps 750 mmHg 76%
07:00 +13°C° 0 mm 2 mps 751 mmHg 74%
08:00 +14°C° 0 mm 2 mps 751 mmHg 72%
09:00 +14°C° 0 mm 2 mps 751 mmHg 69%
10:00 +14°C° 0 mm 2 mps 752 mmHg 67%
11:00 +15°C° 0 mm 2 mps 751 mmHg 64%
12:00 +15°C° 0 mm 2 mps 751 mmHg 61%
13:00 +16°C° 0 mm 2 mps 751 mmHg 58%
14:00 +16°C° 0 mm 2 mps 750 mmHg 59%
15:00 +16°C° 0 mm 3 mps 750 mmHg 59%
16:00 +16°C° 0 mm 3 mps 750 mmHg 59%
17:00 +14°C° 0 mm 3 mps 750 mmHg 65%
18:00 +13°C° 0 mm 3 mps 750 mmHg 70%
19:00 +13°C° 0 mm 2 mps 751 mmHg 75%
20:00 +12°C° 0 mm 2 mps 751 mmHg 76%
21:00 +12°C° 0 mm 2 mps 751 mmHg 77%
22:00 +12°C° 0 mm 2 mps 751 mmHg 78%
23:00 +10°C° 0 mm 3 mps 751 mmHg 78%

9 March, Tuesday

Time Temperature Precipitation Wind Pressure Humidity
00:00 +10°C° 0 mm 3 mps 751 mmHg 78%
01:00 +10°C° 0 mm 3 mps 751 mmHg 78%
02:00 +10°C° 0 mm 3 mps 750 mmHg 79%
03:00 +9°C° 0 mm 3 mps 750 mmHg 79%
04:00 +9°C° 0 mm 3 mps 750 mmHg 79%
05:00 +9°C° 0 mm 3 mps 750 mmHg 78%
06:00 +10°C° 0 mm 4 mps 750 mmHg 77%
07:00 +10°C° 0 mm 4 mps 751 mmHg 76%
08:00 +10°C° 0 mm 5 mps 751 mmHg 67%
09:00 +11°C° 0 mm 6 mps 751 mmHg 59%
10:00 +14°C° 0 mm 6 mps 751 mmHg 50%
11:00 +14°C° 0 mm 7 mps 751 mmHg 48%
12:00 +14°C° 0 mm 7 mps 751 mmHg 46%
13:00 +15°C° 0 mm 8 mps 750 mmHg 44%
14:00 +14°C° 0 mm 7 mps 750 mmHg 47%
15:00 +14°C° 0 mm 7 mps 750 mmHg 50%
16:00 +12°C° 0 mm 7 mps 750 mmHg 53%
17:00 +11°C° 0.1 mm 6 mps 750 mmHg 59%
18:00 +10°C° 0.1 mm 5 mps 750 mmHg 65%
19:00 +10°C° 0.1 mm 4 mps 750 mmHg 72%
20:00 +9°C° 1.2 mm 5 mps 750 mmHg 73%
21:00 +9°C° 1.2 mm 5 mps 750 mmHg 75%
22:00 +10°C° 1.2 mm 6 mps 750 mmHg 76%
23:00 +9°C° 1 mm 5 mps 750 mmHg 78%

10 March, Wednesday

Time Temperature Precipitation Wind Pressure Humidity
00:00 +9°C° 1 mm 5 mps 750 mmHg 79%
01:00 +8°C° 1 mm 5 mps 749 mmHg 80%
02:00 +8°C° 0.7 mm 4 mps 749 mmHg 80%
03:00 +9°C° 0.7 mm 3 mps 749 mmHg 80%
04:00 +9°C° 0.7 mm 2 mps 748 mmHg 80%
05:00 +9°C° 0.7 mm 2 mps 748 mmHg 79%
06:00 +9°C° 0.7 mm 2 mps 748 mmHg 78%
07:00 +10°C° 0.7 mm 1 mps 748 mmHg 77%
08:00 +10°C° 0.6 mm 2 mps 749 mmHg 73%
09:00 +12°C° 0.6 mm 2 mps 749 mmHg 68%
10:00 +13°C° 0.6 mm 2 mps 749 mmHg 63%
11:00 +12°C° 0.4 mm 3 mps 749 mmHg 59%
12:00 +13°C° 0.4 mm 5 mps 748 mmHg 55%
13:00 +13°C° 0.4 mm 6 mps 748 mmHg 51%
14:00 +13°C° 0 mm 6 mps 748 mmHg 51%
15:00 +13°C° 0 mm 6 mps 747 mmHg 51%
16:00 +13°C° 0 mm 6 mps 747 mmHg 51%
17:00 +12°C° 0 mm 5 mps 747 mmHg 56%
18:00 +10°C° 0 mm 4 mps 748 mmHg 61%
19:00 +8°C° 0 mm 4 mps 748 mmHg 66%
20:00 +9°C° 0 mm 3 mps 748 mmHg 67%
21:00 +9°C° 0 mm 2 mps 748 mmHg 69%
22:00 +8°C° 0 mm 2 mps 748 mmHg 71%
23:00 +9°C° 0.2 mm 1 mps 748 mmHg 71%

11 March, Thursday

Time Temperature Precipitation Wind Pressure Humidity
00:00 +9°C° 0.2 mm 1 mps 748 mmHg 72%
01:00 +9°C° 0.2 mm 1 mps 748 mmHg 73%
02:00 +8°C° 0.1 mm 1 mps 748 mmHg 74%
03:00 +7°C° 0.1 mm 0 mps 748 mmHg 75%
04:00 +7°C° 0.1 mm 0 mps 748 mmHg 75%
05:00 +8°C° 0 mm 0 mps 748 mmHg 73%
06:00 +9°C° 0 mm 1 mps 749 mmHg 72%
07:00 +10°C° 0 mm 1 mps 749 mmHg 70%
08:00 +11°C° 0 mm 1 mps 749 mmHg 64%
09:00 +12°C° 0 mm 1 mps 750 mmHg 57%
10:00 +13°C° 0 mm 2 mps 750 mmHg 51%
11:00 +14°C° 0 mm 2 mps 750 mmHg 49%
12:00 +14°C° 0 mm 3 mps 750 mmHg 47%
13:00 +14°C° 0 mm 4 mps 749 mmHg 45%
14:00 +14°C° 0 mm 4 mps 749 mmHg 47%
15:00 +14°C° 0 mm 4 mps 749 mmHg 49%
16:00 +14°C° 0 mm 4 mps 749 mmHg 51%
17:00 +13°C° 0 mm 3 mps 749 mmHg 57%
18:00 +12°C° 0 mm 2 mps 749 mmHg 63%
19:00 +11°C° 0 mm 1 mps 750 mmHg 68%
20:00 +10°C° 0 mm 2 mps 750 mmHg 69%
21:00 +10°C° 0 mm 3 mps 750 mmHg 69%
22:00 +9°C° 0 mm 3 mps 751 mmHg 70%
23:00 +9°C° 0 mm 3 mps 751 mmHg 70%
Show more